| time (UTC) | temp F | wind direction | speed knots | gust knots | rain 1hr in | rain 24hr in | rain mn in | humidity % | barometer mb |
| 20260505152604 | 55 | 357 | 2.6 | 10.4 | 0.02 | 0.09 | 0.08 | 92 | 1006.0 |
| 20260505152104 | 55 | 3 | 3.5 | 7.8 | 0.02 | 0.08 | 0.07 | 92 | 1006.1 |
| 20260505151603 | 55 | 2 | 4.3 | 10.4 | 0.02 | 0.08 | 0.07 | 92 | 1006.2 |
| 20260505151104 | 55 | 354 | 2.6 | 7.0 | 0.02 | 0.08 | 0.07 | 91 | 1006.1 |
| 20260505150604 | 55 | 31 | 1.7 | 6.1 | 0.02 | 0.07 | 0.06 | 92 | 1006.1 |
| 20260505150104 | 55 | 25 | 2.6 | 7.8 | 0.03 | 0.07 | 0.06 | 91 | 1006.1 |
| 20260505140603 | 55 | 350 | 4.3 | 7.0 | 0.02 | 0.05 | 0.04 | 91 | 1006.2 |
| 20260505140104 | 55 | 0 | 1.7 | 7.8 | 0.02 | 0.04 | 0.03 | 91 | 1006.2 |
| 20260505130104 | 57 | 2 | 5.2 | 8.7 | 0.00 | 0.02 | 0.01 | 90 | 1006.2 |
| 20260505124605 | 57 | 8 | 4.3 | 8.7 | 0.00 | 0.02 | 0.01 | 89 | 1006.3 |
| 20260505124104 | 57 | 17 | 5.2 | 10.4 | 0.00 | 0.02 | 0.01 | 89 | 1006.3 |
| 20260505123103 | 57 | 356 | 4.3 | 8.7 | 0.00 | 0.02 | 0.01 | 89 | 1006.3 |
| 20260505122605 | 57 | 3 | 2.6 | 10.4 | 0.00 | 0.02 | 0.01 | 89 | 1006.3 |
| 20260505122104 | 57 | 356 | 4.3 | 8.7 | 0.00 | 0.02 | 0.01 | 88 | 1006.3 |
| 20260505121604 | 57 | 0 | 4.3 | 7.0 | 0.00 | 0.02 | 0.01 | 88 | 1006.4 |
| 20260505121103 | 58 | 7 | 2.6 | 6.1 | 0.00 | 0.02 | 0.01 | 88 | 1006.3 |
| 20260505120604 | 58 | 21 | 3.5 | 8.7 | 0.00 | 0.02 | 0.01 | 88 | 1006.3 |
| 20260505120104 | 58 | 28 | 5.2 | 8.7 | 0.00 | 0.02 | 0.01 | 88 | 1006.4 |
| 20260505115104 | 58 | 10 | 2.6 | 7.0 | 0.00 | 0.02 | 0.01 | 87 | 1006.4 |
| 20260505114606 | 58 | 26 | 2.6 | 6.1 | 0.00 | 0.02 | 0.01 | 87 | 1006.5 |
| 20260505114103 | 58 | 0 | 1.7 | 7.0 | 0.00 | 0.02 | 0.01 | 87 | 1006.4 |
| 20260505113604 | 58 | 356 | 4.3 | 8.7 | 0.00 | 0.02 | 0.01 | 86 | 1006.5 |
| 20260505113104 | 58 | 13 | 4.3 | 10.4 | 0.00 | 0.02 | 0.01 | 85 | 1006.5 |
| 20260505112603 | 59 | 35 | 2.6 | 6.1 | 0.00 | 0.02 | 0.01 | 85 | 1006.6 |
| 20260505112104 | 59 | 1 | 2.6 | 5.2 | 0.00 | 0.02 | 0.01 | 86 | 1006.6 |
| 20260505111604 | 59 | 20 | 2.6 | 6.1 | 0.00 | 0.02 | 0.01 | 85 | 1006.6 |
| 20260505111104 | 59 | 14 | 2.6 | 6.1 | 0.00 | 0.02 | 0.01 | 85 | 1006.7 |
| 20260505110604 | 59 | 11 | 1.7 | 7.0 | 0.00 | 0.02 | 0.01 | 85 | 1006.7 |
| 20260505101604 | 58 | 21 | 4.3 | 7.8 | 0.00 | 0.02 | 0.01 | 85 | 1007.1 |
| 20260505101104 | 58 | 15 | 1.7 | 6.1 | 0.00 | 0.02 | 0.01 | 86 | 1007.2 |
| 20260505100604 | 58 | 0 | 0.9 | 7.0 | 0.00 | 0.02 | 0.01 | 86 | 1007.2 |
| 20260505095604 | 58 | 10 | 2.6 | 7.0 | 0.00 | 0.02 | 0.01 | 86 | 1007.3 |
| 20260505095104 | 58 | 1 | 0.9 | 6.1 | 0.00 | 0.02 | 0.01 | 86 | 1007.3 |
| 20260505093617 | 58 | 25 | 4.3 | 8.7 | 0.00 | 0.03 | 0.01 | 86 | 1007.3 |
| 20260505093118 | 58 | 36 | 2.6 | 7.0 | 0.00 | 0.03 | 0.01 | 86 | 1007.2 |
| 20260505092617 | 58 | 19 | 2.6 | 8.7 | 0.00 | 0.03 | 0.01 | 86 | 1007.3 |
| 20260505091617 | 58 | 26 | 3.5 | 7.8 | 0.00 | 0.03 | 0.01 | 86 | 1007.2 |
| 20260505090117 | 58 | 7 | 6.1 | 10.4 | 0.01 | 0.03 | 0.01 | 85 | 1007.1 |
| 20260505085617 | 59 | 10 | 2.6 | 7.8 | 0.01 | 0.03 | 0.01 | 86 | 1007.1 |
| 20260505085117 | 59 | 18 | 4.3 | 8.7 | 0.01 | 0.03 | 0.01 | 86 | 1007.1 |
| 20260505084617 | 59 | 21 | 1.7 | 7.8 | 0.01 | 0.03 | 0.01 | 87 | 1007.1 |
| 20260505084119 | 59 | 21 | 3.5 | 10.4 | 0.01 | 0.03 | 0.01 | 86 | 1007.1 |
| 20260505083618 | 59 | 11 | 2.6 | 6.1 | 0.01 | 0.03 | 0.01 | 87 | 1007.1 |
| 20260505083117 | 58 | 23 | 4.3 | 7.8 | 0.01 | 0.03 | 0.01 | 87 | 1007.1 |
| 20260505082619 | 58 | 12 | 2.6 | 7.0 | 0.01 | 0.03 | 0.01 | 88 | 1007.1 |
| 20260505082118 | 57 | 31 | 4.3 | 8.7 | 0.01 | 0.03 | 0.01 | 88 | 1007.3 |
| 20260505081117 | 57 | 41 | 0.9 | 4.3 | 0.01 | 0.03 | 0.01 | 89 | 1007.4 |
| 20260505080116 | 57 | 33 | 2.6 | 7.0 | 0.01 | 0.03 | 0.01 | 89 | 1007.4 |
| 20260505075616 | 57 | 36 | 0.9 | 6.1 | 0.00 | 0.02 | 0.00 | 89 | 1007.4 |
| 20260505074117 | 57 | 56 | 3.5 | 6.1 | 0.00 | 0.02 | 0.00 | 89 | 1007.5 |
| 20260505073617 | 57 | 35 | 1.7 | 5.2 | 0.00 | 0.02 | 0.00 | 89 | 1007.5 |
| 20260505073117 | 57 | 55 | 0.0 | 5.2 | 0.00 | 0.02 | 0.00 | 90 | 1007.6 |
| 20260505072616 | 57 | 39 | 1.7 | 6.1 | 0.00 | 0.02 | 0.00 | 91 | 1007.5 |
| 20260505071617 | 57 | 54 | 0.9 | 2.6 | 0.00 | 0.02 | 0.00 | 91 | 1007.6 |
| 20260505065616 | 56 | 39 | 1.7 | 6.1 | 0.00 | 0.03 | 0.00 | 91 | 1007.7 |
| 20260505064616 | 56 | 43 | 0.9 | 7.8 | 0.00 | 0.03 | 0.00 | 92 | 1007.8 |
| 20260505064117 | 56 | 35 | 0.9 | 5.2 | 0.00 | 0.03 | 0.00 | 92 | 1007.9 |
| 20260505063616 | 56 | 34 | 2.6 | 7.0 | 0.00 | 0.03 | 0.00 | 92 | 1007.9 |
| 20260505063117 | 56 | 42 | 2.6 | 7.0 | 0.00 | 0.03 | 0.00 | 92 | 1007.9 |
| 20260505062618 | 56 | 27 | 2.6 | 10.4 | 0.00 | 0.03 | 0.00 | 92 | 1007.9 |
| 20260505062116 | 55 | 21 | 5.2 | 10.4 | 0.00 | 0.03 | 0.00 | 92 | 1007.9 |
| 20260505061617 | 56 | 33 | 1.7 | 7.8 | 0.00 | 0.03 | 0.00 | 92 | 1007.9 |
| 20260505061118 | 55 | 28 | 1.7 | 6.1 | 0.00 | 0.03 | 0.00 | 92 | 1007.9 |
| 20260505060616 | 55 | 47 | 1.7 | 5.2 | 0.00 | 0.03 | 0.00 | 92 | 1007.9 |
| 20260505060117 | 55 | 29 | 0.9 | 7.8 | 0.00 | 0.03 | 0.00 | 92 | 1008.0 |
| 20260505055617 | 55 | 25 | 4.3 | 7.0 | 0.00 | 0.03 | 0.00 | 92 | 1008.0 |
| 20260505055117 | 55 | 30 | 4.3 | 7.0 | 0.00 | 0.03 | 0.00 | 92 | 1008.1 |
| 20260505054617 | 55 | 36 | 1.7 | 7.0 | 0.00 | 0.03 | 0.00 | 91 | 1008.1 |
| 20260505054116 | 55 | 31 | 1.7 | 6.1 | 0.00 | 0.03 | 0.00 | 91 | 1008.0 |
| 20260505053617 | 55 | 26 | 2.6 | 5.2 | 0.00 | 0.03 | 0.00 | 91 | 1008.0 |
| 20260505053117 | 55 | 28 | 1.7 | 4.3 | 0.00 | 0.03 | 0.00 | 91 | 1008.2 |
| 20260505052118 | 55 | 32 | 1.7 | 6.1 | 0.00 | 0.03 | 0.00 | 92 | 1008.0 |
| 20260505051117 | 55 | 35 | 0.9 | 4.3 | 0.00 | 0.03 | 0.00 | 92 | 1008.0 |
| 20260505041117 | 55 | 15 | 1.7 | 6.1 | 0.00 | 0.03 | 0.00 | 92 | 1008.0 |
| 20260505040117 | 55 | 30 | 3.5 | 7.8 | 0.00 | 0.03 | 0.00 | 92 | 1008.2 |
| 20260505035617 | 55 | 3 | 2.6 | 7.0 | 0.00 | 0.03 | 0.00 | 92 | 1008.3 |
| 20260505034617 | 55 | 29 | 0.9 | 5.2 | 0.00 | 0.03 | 0.00 | 92 | 1008.4 |
| 20260505034117 | 55 | 53 | 0.0 | 2.6 | 0.00 | 0.03 | 0.00 | 92 | 1008.6 |
| 20260505033617 | 55 | 63 | 0.9 | 5.2 | 0.00 | 0.03 | 0.00 | 92 | 1008.5 |
| 20260505033116 | 55 | 20 | 0.0 | 5.2 | 0.00 | 0.03 | 0.00 | 92 | 1008.4 |
| 20260505032617 | 55 | 25 | 0.9 | 5.2 | 0.00 | 0.03 | 0.00 | 92 | 1008.4 |
| 20260505032116 | 56 | 21 | 0.9 | 2.6 | 0.00 | 0.03 | 0.00 | 92 | 1008.6 |
| 20260505031617 | 56 | 25 | 0.0 | 0.0 | 0.00 | 0.03 | 0.00 | 92 | 1008.7 |
| 20260505031116 | 56 | 25 | 0.0 | 0.0 | 0.00 | 0.03 | 0.00 | 92 | 1008.8 |
| 20260505030617 | 56 | 25 | 0.0 | 0.0 | 0.00 | 0.03 | 0.00 | 92 | 1008.8 |
| 20260505025616 | 56 | 25 | 0.0 | 0.0 | 0.00 | 0.03 | 0.00 | 92 | 1008.8 |
| 20260505025116 | 56 | 22 | 0.0 | 0.0 | 0.00 | 0.03 | 0.00 | 92 | 1008.6 |
| 20260505024116 | 56 | 20 | 0.0 | 2.6 | 0.00 | 0.03 | 0.00 | 92 | 1008.5 |
| 20260505023617 | 56 | 15 | 0.9 | 4.3 | 0.00 | 0.03 | 0.00 | 92 | 1008.7 |
| 20260505023117 | 56 | 25 | 0.0 | 2.6 | 0.00 | 0.03 | 0.00 | 92 | 1008.6 |
| 20260505022616 | 56 | 25 | 0.0 | 0.0 | 0.00 | 0.03 | 0.00 | 92 | 1008.6 |
| 20260505022116 | 56 | 25 | 0.0 | 4.3 | 0.00 | 0.03 | 0.00 | 92 | 1008.7 |
| 20260505020616 | 56 | 74 | 0.0 | 0.0 | 0.00 | 0.03 | 0.00 | 92 | 1008.9 |
| 20260505020118 | 56 | 76 | 0.0 | 0.0 | 0.00 | 0.03 | 0.00 | 92 | 1009.0 |
| 20260505015617 | 56 | 77 | 0.0 | 1.7 | 0.00 | 0.03 | 0.00 | 92 | 1009.0 |
| 20260505014617 | 56 | 76 | 0.0 | 1.7 | 0.00 | 0.03 | 0.00 | 91 | 1009.1 |
| 20260505013117 | 56 | 77 | 0.0 | 0.0 | 0.00 | 0.03 | 0.00 | 91 | 1009.5 |
| 20260505012617 | 56 | 77 | 0.0 | 0.0 | 0.00 | 0.03 | 0.00 | 91 | 1009.5 |
| 20260505012116 | 56 | 78 | 0.0 | 0.0 | 0.00 | 0.03 | 0.00 | 91 | 1009.4 |
| 20260505011616 | 56 | 78 | 0.0 | 0.0 | 0.00 | 0.03 | 0.00 | 91 | 1009.5 |
| 20260505011117 | 56 | 78 | 0.0 | 0.0 | 0.00 | 0.03 | 0.00 | 91 | 1009.4 |
| 20260505010617 | 56 | 78 | 0.0 | 0.0 | 0.00 | 0.03 | 0.00 | 91 | 1009.5 |
| 20260505010117 | 56 | 78 | 0.0 | 0.0 | 0.00 | 0.03 | 0.00 | 91 | 1009.5 |
| 20260505005617 | 56 | 78 | 0.0 | 0.0 | 0.00 | 0.03 | 0.00 | 90 | 1009.4 |
| 20260505005117 | 56 | 78 | 0.0 | 0.0 | 0.00 | 0.03 | 0.00 | 90 | 1009.5 |
| 20260505004617 | 56 | 78 | 0.0 | 0.0 | 0.00 | 0.03 | 0.00 | 90 | 1009.5 |
| 20260505004117 | 56 | 78 | 0.0 | 0.0 | 0.00 | 0.03 | 0.00 | 90 | 1009.5 |
| 20260505003618 | 56 | 78 | 0.0 | 0.0 | 0.00 | 0.03 | 0.00 | 90 | 1009.5 |
| 20260505002616 | 56 | 78 | 0.0 | 0.0 | 0.00 | 0.03 | 0.00 | 90 | 1009.5 |
| 20260505002117 | 56 | 78 | 0.0 | 0.0 | 0.00 | 0.03 | 0.00 | 90 | 1009.5 |
| 20260505001616 | 56 | 78 | 0.0 | 0.0 | 0.00 | 0.03 | 0.00 | 90 | 1009.5 |
| 20260505001117 | 56 | 78 | 0.0 | 0.0 | 0.00 | 0.03 | 0.00 | 90 | 1009.4 |
| 20260505000617 | 56 | 78 | 0.0 | 0.0 | 0.00 | 0.03 | 0.00 | 90 | 1009.4 |
| 20260505000118 | 56 | 78 | 0.0 | 0.0 | 0.00 | 0.03 | 0.00 | 90 | 1009.3 |
| 20260504235616 | 56 | 76 | 0.0 | 0.0 | 0.00 | 0.03 | 0.00 | 90 | 1009.2 |
| 20260504235116 | 56 | 78 | 0.0 | 0.0 | 0.00 | 0.03 | 0.00 | 90 | 1009.2 |
| 20260504234116 | 56 | 78 | 0.0 | 0.0 | 0.00 | 0.03 | 0.00 | 90 | 1009.2 |
| 20260504233616 | 56 | 78 | 0.0 | 0.0 | 0.00 | 0.03 | 0.00 | 90 | 1009.2 |
| 20260504233117 | 56 | 78 | 0.9 | 1.7 | 0.00 | 0.03 | 0.00 | 90 | 1009.2 |
| 20260504231617 | 57 | 79 | 0.0 | 0.0 | 0.00 | 0.03 | 0.00 | 90 | 1009.5 |
| 20260504231117 | 57 | 79 | 0.0 | 0.0 | 0.00 | 0.03 | 0.00 | 90 | 1009.5 |
| 20260504230117 | 57 | 79 | 0.0 | 0.0 | 0.00 | 0.03 | 0.00 | 90 | 1009.8 |
| 20260504225616 | 57 | 79 | 0.0 | 0.0 | 0.00 | 0.03 | 0.00 | 90 | 1009.9 |
| 20260504225117 | 57 | 79 | 0.0 | 0.0 | 0.00 | 0.03 | 0.00 | 90 | 1010.0 |
| 20260504224617 | 57 | 79 | 0.0 | 0.0 | 0.00 | 0.03 | 0.00 | 90 | 1010.0 |
| 20260504224117 | 57 | 79 | 0.0 | 0.0 | 0.00 | 0.03 | 0.00 | 90 | 1010.0 |
| 20260504223617 | 57 | 79 | 0.0 | 0.0 | 0.00 | 0.03 | 0.00 | 90 | 1010.0 |
| 20260504223116 | 57 | 79 | 0.0 | 0.0 | 0.00 | 0.03 | 0.00 | 90 | 1010.0 |
| 20260504222617 | 57 | 79 | 0.0 | 0.0 | 0.00 | 0.03 | 0.00 | 90 | 1010.1 |
| 20260504222116 | 57 | 79 | 0.0 | 0.0 | 0.00 | 0.03 | 0.00 | 90 | 1010.1 |
| 20260504221616 | 58 | 76 | 0.0 | 0.0 | 0.00 | 0.03 | 0.00 | 90 | 1010.2 |
| 20260504221117 | 58 | 79 | 0.0 | 0.0 | 0.00 | 0.03 | 0.00 | 90 | 1010.3 |
| 20260504220616 | 58 | 79 | 0.0 | 0.0 | 0.00 | 0.03 | 0.00 | 90 | 1010.2 |
| 20260504220116 | 58 | 79 | 0.0 | 0.0 | 0.00 | 0.03 | 0.00 | 90 | 1010.3 |
| 20260504215617 | 58 | 78 | 0.0 | 0.0 | 0.00 | 0.03 | 0.03 | 90 | 1010.3 |
| 20260504215117 | 58 | 79 | 0.0 | 0.0 | 0.00 | 0.03 | 0.03 | 90 | 1010.4 |
| 20260504214116 | 58 | 78 | 0.0 | 0.0 | 0.00 | 0.03 | 0.03 | 89 | 1010.5 |
| 20260504213615 | 58 | 78 | 0.0 | 0.0 | 0.00 | 0.03 | 0.03 | 89 | 1010.5 |
| 20260504213115 | 58 | 79 | 0.0 | 0.0 | 0.00 | 0.03 | 0.03 | 89 | 1010.5 |
| 20260504212615 | 58 | 79 | 0.0 | 0.0 | 0.00 | 0.03 | 0.03 | 89 | 1010.6 |
| 20260504211615 | 58 | 78 | 0.0 | 0.0 | 0.00 | 0.03 | 0.03 | 89 | 1010.6 |
| 20260504210615 | 58 | 79 | 0.0 | 0.0 | 0.00 | 0.03 | 0.03 | 89 | 1010.6 |
| 20260504210115 | 58 | 79 | 0.0 | 0.0 | 0.00 | 0.03 | 0.03 | 89 | 1010.6 |
| 20260504205615 | 58 | 78 | 0.0 | 0.0 | 0.00 | 0.03 | 0.03 | 89 | 1010.7 |
| 20260504205115 | 58 | 79 | 0.0 | 0.0 | 0.00 | 0.03 | 0.03 | 89 | 1010.7 |
| 20260504204615 | 58 | 79 | 0.0 | 0.0 | 0.00 | 0.03 | 0.03 | 89 | 1010.7 |
| 20260504204116 | 58 | 78 | 0.0 | 0.0 | 0.00 | 0.03 | 0.03 | 88 | 1010.8 |
| 20260504203115 | 59 | 79 | 0.0 | 0.0 | 0.00 | 0.03 | 0.03 | 88 | 1010.8 |
| 20260504202115 | 59 | 79 | 0.0 | 0.0 | 0.00 | 0.03 | 0.03 | 89 | 1010.8 |
| 20260504201615 | 59 | 79 | 0.0 | 0.0 | 0.00 | 0.03 | 0.03 | 89 | 1010.8 |
| 20260504201115 | 59 | 78 | 0.0 | 0.0 | 0.00 | 0.03 | 0.03 | 89 | 1010.8 |
| 20260504200616 | 59 | 79 | 0.0 | 0.0 | 0.00 | 0.03 | 0.03 | 89 | 1010.8 |
| 20260504195615 | 59 | 79 | 0.0 | 0.0 | 0.00 | 0.03 | 0.03 | 89 | 1010.7 |
| 20260504195115 | 59 | 79 | 0.0 | 0.0 | 0.00 | 0.03 | 0.03 | 89 | 1010.6 |
| 20260504194615 | 59 | 78 | 0.0 | 0.0 | 0.00 | 0.03 | 0.03 | 89 | 1010.6 |
| 20260504194115 | 59 | 79 | 0.0 | 0.0 | 0.01 | 0.03 | 0.03 | 89 | 1010.7 |
| 20260504193616 | 59 | 79 | 0.0 | 0.0 | 0.01 | 0.03 | 0.03 | 89 | 1010.6 |
| 20260504193115 | 59 | 77 | 0.0 | 0.0 | 0.01 | 0.03 | 0.03 | 89 | 1010.4 |
| 20260504192616 | 59 | 79 | 0.0 | 0.0 | 0.01 | 0.03 | 0.03 | 89 | 1010.4 |
| 20260504192114 | 59 | 79 | 0.0 | 0.0 | 0.01 | 0.03 | 0.03 | 89 | 1010.4 |
| 20260504191616 | 59 | 78 | 0.0 | 0.0 | 0.01 | 0.03 | 0.03 | 88 | 1010.5 |
| 20260504191114 | 59 | 79 | 0.0 | 0.0 | 0.01 | 0.03 | 0.03 | 88 | 1010.5 |
| 20260504190615 | 59 | 79 | 0.0 | 0.0 | 0.01 | 0.03 | 0.03 | 88 | 1010.5 |
| 20260504190115 | 59 | 81 | 0.0 | 0.0 | 0.01 | 0.03 | 0.03 | 88 | 1010.5 |
| 20260504185615 | 60 | 82 | 0.0 | 0.0 | 0.01 | 0.03 | 0.03 | 88 | 1010.6 |
| 20260504185115 | 60 | 80 | 0.0 | 0.0 | 0.01 | 0.03 | 0.03 | 88 | 1010.5 |
| 20260504184614 | 60 | 82 | 0.0 | 0.0 | 0.01 | 0.03 | 0.03 | 87 | 1010.4 |
| 20260504184115 | 60 | 82 | 0.0 | 0.0 | 0.00 | 0.02 | 0.02 | 87 | 1010.4 |
| 20260504183615 | 60 | 83 | 0.0 | 0.0 | 0.00 | 0.02 | 0.02 | 87 | 1010.4 |
| 20260504183115 | 60 | 83 | 0.0 | 0.0 | 0.00 | 0.02 | 0.02 | 86 | 1010.4 |
| 20260504182115 | 61 | 84 | 0.0 | 1.7 | 0.00 | 0.02 | 0.02 | 85 | 1010.4 |
| 20260504181615 | 61 | 154 | 0.0 | 0.0 | 0.00 | 0.02 | 0.02 | 84 | 1010.4 |
| 20260504181116 | 61 | 164 | 0.0 | 0.0 | 0.00 | 0.02 | 0.02 | 83 | 1010.4 |
| 20260504180615 | 61 | 165 | 0.0 | 0.0 | 0.00 | 0.02 | 0.02 | 82 | 1010.4 |
| 20260504180115 | 62 | 167 | 0.0 | 0.0 | 0.00 | 0.02 | 0.02 | 82 | 1010.3 |
| 20260504175616 | 62 | 169 | 0.0 | 0.0 | 0.00 | 0.02 | 0.02 | 82 | 1010.3 |
| 20260504175115 | 62 | 169 | 0.0 | 0.0 | 0.00 | 0.02 | 0.02 | 82 | 1010.2 |
| 20260504174615 | 62 | 168 | 0.0 | 0.0 | 0.00 | 0.02 | 0.02 | 82 | 1010.2 |
| 20260504174115 | 62 | 166 | 0.0 | 0.0 | 0.00 | 0.02 | 0.02 | 80 | 1010.3 |
| 20260504173616 | 62 | 169 | 0.0 | 0.0 | 0.00 | 0.02 | 0.02 | 78 | 1010.2 |
| 20260504172614 | 63 | 170 | 0.0 | 0.0 | 0.00 | 0.02 | 0.02 | 74 | 1010.1 |
| 20260504172115 | 63 | 168 | 0.0 | 0.0 | 0.00 | 0.02 | 0.02 | 73 | 1010.1 |
| 20260504171614 | 63 | 171 | 0.0 | 0.0 | 0.00 | 0.02 | 0.02 | 72 | 1010.1 |
| 20260504171115 | 63 | 171 | 0.0 | 0.9 | 0.00 | 0.02 | 0.02 | 72 | 1010.1 |
| 20260504170615 | 64 | 170 | 0.0 | 0.0 | 0.00 | 0.02 | 0.02 | 72 | 1010.2 |
| 20260504170115 | 64 | 171 | 0.0 | 0.0 | 0.00 | 0.02 | 0.02 | 71 | 1010.1 |